[[{"header":{"parameterUnit":"m.s-1","parameterCategory":2,"la1":30.2991,"la2":30.254,"lo1":-89.0895,"lo2":-89.0444,"dy":0.0017,"dx":0.0017,"nx":28,"ny":28,"refTime":"2025-04-21T21:00:00:Z","depth":"0","parameterNumber":2,"parameterNumberName":"U-component_of_CURRENTS"},"data":[0,0,0,0,0,0,0,0,0,0,0,0,0,0,0,0,0,0,0,0,0,0,0,0,0,0,0,0,0,0,0,0,0,0,0,0,0,0,0,0,0,0,0,0,0,0,0,0,0,0,0,0,0,0,0,0,0,0,0.2866,0.2865,0,0.2785,0.2784,0.2783,0.2707,0.2707,0.2706,0.2705,0.2652,0.2651,0.2651,0,0,0,0,0,0,0,0,0,0,0,0,0,0.2816,0.2818,0.2866,0.2865,0.2864,0.2785,0.2784,0.2782,0.2707,0.2706,0.2706,0.2705,0.2653,0.2652,0.2651,0,0,0,0,0,0,0,0,0,0,0,0,0,0.2794,0.2819,0.2866,0.282,0.2815,0.2785,0.2784,0.2782,0.2707,0.2706,0.2705,0.2705,0.2653,0.2652,0.2651,0.2663,0,0,0.2647,0.2646,0,0,0,0,0,0,0,0,0.2796,0.2796,0.2827,0.2823,0.2817,0.2758,0.2747,0.2745,0.2708,0.2745,0.2705,0.2704,0.2693,0.2688,0.2671,0.2661,0.2658,0.2647,0.2646,0.2646,0.2645,0,0,0,0,0,0,0,0.2798,0.2798,0.2831,0.2826,0.2821,0.2755,0.2752,0.2745,0.2724,0.2742,0.2737,0.2733,0.269,0.2672,0.2669,0.2658,0.2647,0.2646,0.2645,0.2645,0.2632,0.2632,0,0,0,0,0,0,0.2823,0.2801,0.2833,0.2829,0.2807,0.2758,0.2754,0.2775,0.2723,0.2715,0.2734,0.273,0.2674,0.267,0.2667,0.269,0.2646,0.2644,0.2644,0.2631,0.2632,0.2632,0,0,0,0,0,0,0.2822,0.2827,0.2837,0.2813,0.281,0.2761,0.2785,0.2774,0.276,0.2717,0.2708,0.2731,0.2673,0.2669,0.2672,0.2687,0.2644,0.2643,0.2631,0.2632,0.2632,0.273,0,0,0,0,0,0,0.2822,0.2828,0.2852,0.2816,0.2813,0.2847,0.2786,0.2774,0.276,0.2754,0.2712,0.2705,0.2672,0.2674,0.2671,0.2685,0.2642,0.2631,0.2631,0.2632,0.2726,0.2734,0.274,0,0,0,0,0,0.2821,0.2878,0.2854,0.2857,0.2848,0.2849,0.2842,0.2798,0.2761,0.2776,0.2738,0.2707,0.2675,0.2674,0.267,0.2684,0.263,0.2631,0.2632,0.2723,0.2732,0.274,0,0,0,0,0,0,0.2871,0.2875,0.2848,0.2903,0.2882,0.2838,0.2854,0.281,0.2787,0.2782,0.2725,0.2718,0.2721,0.2691,0.2691,0.2678,0.2642,0.2642,0.2713,0.2721,0.2728,0.279,0.2641,0,0,0,0,0,0.2893,0.2936,0.291,0.2951,0.2952,0.2898,0.289,0.2859,0.2833,0.282,0.2783,0.2745,0.272,0.2714,0.2691,0.2699,0.271,0.2699,0.2706,0.2712,0.2757,0.277,0.2783,0.2635,0.2635,0.2635,0,0,0.2922,0.2929,0.2951,0.2963,0.2945,0.2954,0.2893,0.2901,0.2898,0.2822,0.282,0.2776,0.2727,0.2727,0.2725,0.2708,0.2761,0.2713,0.2719,0.2762,0.2772,0.2787,0.2801,0.2636,0.2635,0.2635,0,0,0.3,0.3013,0.3065,0.3057,0.3046,0.3013,0.302,0.2981,0.2963,0.2958,0.2889,0.286,0.2831,0.279,0.2767,0.2802,0.2797,0.2785,0.2877,0.2887,0.2901,0.2913,0.2959,0.2975,0.2789,0.279,0.279,0,0.3029,0.3081,0.3076,0.311,0.3105,0.3045,0.307,0.3052,0.3011,0.3011,0.2978,0.2924,0.2862,0.2861,0.286,0.282,0.285,0.285,0.2901,0.2913,0.2924,0.2968,0.2984,0.2794,0.2794,0.2793,0.2793,0,0.3124,0.3156,0.3191,0.3207,0.3208,0.3226,0.3194,0.319,0.3152,0.3124,0.3127,0.3055,0.3028,0.2984,0.2935,0.2969,0.2975,0.291,0.289,0.2946,0.2987,0.3002,0.2801,0.28,0.2798,0.2797,0,0,0.3196,0.3247,0.3252,0.3258,0.3253,0.3258,0.328,0.3278,0.329,0.3265,0.3295,0.3226,0.3199,0.3171,0.3098,0.3099,0.3167,0.3055,0.3053,0.3124,0.3247,0.3165,0.3173,0.3126,0.3128,0.313,0.3253,0,0.3252,0.3327,0.3337,0.3374,0.3395,0.3364,0.3384,0.3378,0.3366,0.3386,0.3346,0.334,0.3268,0.325,0.3253,0.3179,0.321,0.3144,0.3167,0.3169,0.3105,0.3187,0.304,0.3129,0.3267,0.3269,0.3271,0,0.3312,0.3352,0.3409,0.3436,0.3446,0.3461,0.3473,0.3487,0.351,0.3511,0.3536,0.3509,0.3516,0.3429,0.3432,0.3406,0.3363,0.3312,0.3314,0.3223,0.3113,0.309,0.315,0.3066,0.3294,0.3292,0.329,0,0.3315,0.3386,0.3427,0.3435,0.3469,0.3491,0.3504,0.3524,0.3534,0.3598,0.3617,0.3655,0.3641,0.3637,0.3539,0.3507,0.3544,0.3464,0.3373,0.3367,0.3239,0.3217,0.3237,0.35,0.35,0.3499,0.3499,0,0.334,0.3363,0.3434,0.3447,0.3487,0.3515,0.3551,0.3574,0.3619,0.3643,0.3684,0.371,0.369,0.3692,0.3632,0.3566,0.3624,0.344,0.3401,0.3267,0.3246,0.3161,0.3121,0.3504,0.3503,0.3502,0.3501,0,0.3302,0.3354,0.3392,0.3461,0.348,0.3502,0.3548,0.3576,0.3632,0.3671,0.3698,0.3759,0.3774,0.3752,0.3719,0.3643,0.349,0.3549,0.3415,0.3357,0.3174,0.3144,0.3059,0.2964,0.3506,0.3505,0.3504,0,0.3282,0.3307,0.3382,0.3401,0.3427,0.347,0.3492,0.3558,0.358,0.368,0.3695,0.3757,0.3763,0.3738,0.3625,0.3569,0.3444,0.3389,0.3272,0.3193,0.3132,0.302,0.2939,0.3158,0.3154,0.3151,0.3149,0,0.3233,0.3265,0.3303,0.3344,0.3376,0.3406,0.345,0.3468,0.3547,0.3582,0.3629,0.3662,0.3659,0.3529,0.3463,0.3398,0.3228,0.3322,0.3263,0.2907,0.2764,0.2642,0.3084,0.3121,0.3124,0.3126,0.3128,0.3129,0.3185,0.3192,0.3244,0.3272,0.3304,0.3317,0.3299,0.3349,0.3364,0.3361,0.3488,0.3443,0.3416,0.3298,0.3226,0.3011,0.3019,0.2885,0.2878,0.2792,0.2621,0.3028,0.2985,0.2987,0.2989,0.299,0.2991,0,0.3106,0.3131,0.3163,0.3181,0.317,0.3216,0.3235,0.318,0.3143,0.3175,0.317,0.308,0.2974,0.2914,0.2735,0.2592,0.2466,0.2513,0.2336,0.2293,0.2683,0.2586,0.2421,0.2421,0.2421,0.2421,0.2421,0.2421,0.3065,0.3062,0.308,0.3036,0.3039,0.2947,0.2928,0.2867,0.2842,0.2704,0.2603,0.2609,0.2655,0.2571,0.2385,0.2311,0.2134,0.2014,0.2036,0.2327,0.2361,0.2393,0.2293,0.207,0.207,0.1532,0.1528,0.1525]},{"header":{"parameterUnit":"m.s-1","parameterCategory":2,"la1":30.2991,"la2":30.254,"lo1":-89.0895,"lo2":-89.0444,"dy":0.0017,"dx":0.0017,"nx":28,"ny":28,"refTime":"2025-04-21T21:00:00:Z","depth":"0","parameterNumber":3,"parameterNumberName":"V-component_of_CURRENTS"},"data":[0,0,0,0,0,0,0,0,0,0,0,0,0,0,0,0,0,0,0,0,0,0,0,0,0,0,0,0,0,0,0,0,0,0,0,0,0,0,0,0,0,0,0,0,0,0,0,0,0,0,0,0,0,0,0,0,0,0,0.0262,0.0262,0,0.027,0.027,0.027,0.0279,0.0279,0.0279,0.0279,0.0248,0.0247,0.0246,0,0,0,0,0,0,0,0,0,0,0,0,0,0.021,0.0211,0.0262,0.0262,0.0262,0.027,0.027,0.027,0.0279,0.0279,0.0279,0.0279,0.0248,0.0247,0.0246,0,0,0,0,0,0,0,0,0,0,0,0,0,0.0227,0.0212,0.0262,0.0267,0.0267,0.027,0.027,0.027,0.0279,0.0279,0.0279,0.0279,0.0248,0.0247,0.0246,0.0235,0,0,0.0241,0.0241,0,0,0,0,0,0,0,0,0.0227,0.0229,0.0266,0.0267,0.0267,0.0273,0.024,0.0256,0.0279,0.0275,0.0279,0.0279,0.0252,0.025,0.0253,0.0233,0.0232,0.0241,0.024,0.024,0.024,0,0,0,0,0,0,0,0.0225,0.0229,0.0266,0.0266,0.0267,0.0254,0.0257,0.0243,0.0263,0.0276,0.0276,0.0276,0.0252,0.0254,0.0252,0.0231,0.0241,0.024,0.0239,0.0239,0.0213,0.0213,0,0,0,0,0,0,0.0226,0.0228,0.0265,0.0266,0.0246,0.0255,0.0258,0.0272,0.0264,0.0263,0.0276,0.0276,0.0257,0.0254,0.0251,0.0267,0.024,0.0239,0.0238,0.0213,0.0213,0.0213,0,0,0,0,0,0,0.0225,0.023,0.0265,0.0246,0.0249,0.0256,0.027,0.0272,0.0275,0.0264,0.0263,0.0278,0.0257,0.0253,0.0252,0.0264,0.0238,0.0237,0.0213,0.0213,0.0213,0.0279,0,0,0,0,0,0,0.0224,0.023,0.0239,0.0246,0.025,0.0269,0.027,0.0272,0.0274,0.0275,0.0265,0.0262,0.0256,0.0254,0.025,0.0262,0.0236,0.0213,0.0213,0.0213,0.0276,0.0281,0.0285,0,0,0,0,0,0.0222,0.0236,0.024,0.0244,0.0264,0.0269,0.027,0.0274,0.0274,0.0277,0.0278,0.0263,0.0253,0.0254,0.0249,0.026,0.0212,0.0213,0.0213,0.0274,0.028,0.0285,0,0,0,0,0,0,0.0219,0.0238,0.0243,0.0263,0.0266,0.027,0.0273,0.0274,0.0277,0.0277,0.0269,0.0266,0.0269,0.025,0.0251,0.0251,0.0228,0.0227,0.0276,0.0281,0.0285,0.0314,0.0235,0,0,0,0,0,0.0223,0.0241,0.0249,0.0265,0.0265,0.0268,0.027,0.0272,0.0275,0.0276,0.0273,0.0266,0.0266,0.0263,0.0255,0.0255,0.0242,0.0256,0.026,0.0264,0.0284,0.0273,0.0279,0.0214,0.0214,0.0214,0,0,0.0228,0.0239,0.0251,0.0265,0.0267,0.028,0.027,0.0273,0.0294,0.0271,0.0294,0.028,0.0269,0.0277,0.0275,0.0264,0.0274,0.0265,0.0269,0.0286,0.0275,0.0281,0.0287,0.0215,0.0214,0.0214,0,0,0.024,0.0253,0.0268,0.0273,0.0277,0.0284,0.0285,0.0289,0.0301,0.0314,0.0309,0.031,0.0299,0.0307,0.0306,0.0325,0.0298,0.031,0.0359,0.0349,0.0355,0.036,0.0348,0.0352,0.0312,0.0312,0.0313,0,0.0242,0.0271,0.0271,0.0282,0.0299,0.0288,0.0311,0.0319,0.0326,0.036,0.0327,0.0351,0.0321,0.0365,0.0361,0.0339,0.0325,0.0344,0.0357,0.0361,0.0366,0.0352,0.0356,0.0316,0.0315,0.0315,0.0315,0,0.0263,0.0288,0.0294,0.0319,0.0332,0.0346,0.036,0.0383,0.0391,0.0412,0.0451,0.0418,0.0447,0.0417,0.039,0.0414,0.0392,0.0365,0.035,0.0377,0.036,0.0362,0.032,0.0319,0.0318,0.0317,0,0,0.0269,0.0306,0.0309,0.0343,0.0358,0.038,0.042,0.0476,0.0541,0.0524,0.061,0.0568,0.0567,0.0564,0.053,0.0498,0.0489,0.044,0.0438,0.044,0.0466,0.0426,0.0424,0.0462,0.0463,0.0464,0.0442,0,0.0289,0.0336,0.0348,0.0407,0.0438,0.0462,0.0515,0.0565,0.0604,0.0682,0.0666,0.0715,0.0621,0.0639,0.0597,0.0533,0.0498,0.0497,0.043,0.0429,0.0399,0.0427,0.0427,0.0406,0.0444,0.0444,0.0445,0,0.0302,0.0342,0.0402,0.049,0.0508,0.0544,0.0661,0.0705,0.0802,0.0838,0.0884,0.0888,0.0881,0.0779,0.0688,0.0693,0.0585,0.0506,0.0504,0.0451,0.0393,0.0384,0.0408,0.0299,0.0448,0.0447,0.0447,0,0.0319,0.0384,0.0446,0.0468,0.0554,0.0608,0.0661,0.076,0.0835,0.0949,0.1022,0.1027,0.1041,0.0922,0.0764,0.0731,0.0645,0.0589,0.0454,0.045,0.043,0.0423,0.0354,0.051,0.051,0.051,0.051,0,0.0341,0.0391,0.0464,0.0499,0.0604,0.0647,0.077,0.084,0.0957,0.1077,0.1102,0.1191,0.1068,0.1017,0.084,0.0669,0.0711,0.0479,0.0448,0.045,0.0446,0.0333,0.0255,0.0509,0.051,0.051,0.051,0,0.0344,0.0386,0.0467,0.057,0.061,0.0684,0.0821,0.0916,0.102,0.1181,0.1228,0.1315,0.1264,0.112,0.0947,0.0778,0.0534,0.0526,0.0538,0.0508,0.0273,0.0199,0.0093,0.0036,0.0394,0.0393,0.0393,0,0.0349,0.0388,0.0508,0.0567,0.0614,0.0726,0.0812,0.0933,0.1043,0.1257,0.1344,0.1385,0.1439,0.1201,0.0922,0.0659,0.0509,0.0462,0.0387,0.0276,0.0172,0.0123,0.008,0.0385,0.0384,0.0384,0.0383,0,0.0363,0.0402,0.0473,0.0589,0.0683,0.0804,0.0938,0.1039,0.1209,0.1363,0.1553,0.1623,0.1453,0.1229,0.0882,0.0685,0.0389,0.0437,0.0327,0.0168,0.0108,0.0034,0.038,0.0377,0.0378,0.0378,0.0378,0.0379,0.0369,0.0417,0.0507,0.0621,0.0732,0.0881,0.1,0.1156,0.1353,0.1604,0.1663,0.1788,0.1482,0.1034,0.078,0.0326,0.0313,0.0171,0.0095,0.0061,-0.0008,0.0321,0.0275,0.0275,0.0275,0.0275,0.0275,0,0.0376,0.0437,0.0537,0.0691,0.0817,0.0878,0.1088,0.1226,0.1463,0.1663,0.1829,0.174,0.1354,0.0952,0.0332,0.0037,-0.0055,-0.011,-0.0169,-0.0196,0.0109,0.0095,0.0002,0.0002,0.0002,0.0003,0.0003,0.0003,0.0386,0.0465,0.0523,0.0728,0.0847,0.1042,0.1168,0.1369,0.1543,0.1768,0.184,0.1875,0.1558,0.056,-0.0087,-0.0226,-0.041,-0.0467,-0.0554,-0.0342,-0.032,-0.03,-0.0329,-0.0509,-0.051,-0.0806,-0.081,-0.0812]}],[{"header":{"parameterUnit":"m.s-1","parameterCategory":2,"la1":30.2991,"la2":30.254,"lo1":-89.0895,"lo2":-89.0444,"dy":0.0017,"dx":0.0017,"nx":28,"ny":28,"refTime":"2025-04-21T21:00:00:Z","depth":"2","parameterNumber":2,"parameterNumberName":"U-component_of_CURRENTS"},"data":[0,0,0,0,0,0,0,0,0,0,0,0,0,0,0,0,0,0,0,0,0,0,0,0,0,0,0,0,0,0,0,0,0,0,0,0,0,0,0,0,0,0,0,0,0,0,0,0,0,0,0,0,0,0,0,0,0,0,0.204,0.2041,0,0.207,0.207,0.207,0.2071,0.2071,0.2071,0.2071,0.2118,0.2119,0.212,0,0,0,0,0,0,0,0,0,0,0,0,0,0.202,0.202,0.204,0.2041,0.2041,0.207,0.207,0.207,0.2071,0.2071,0.2071,0.2071,0.2117,0.2119,0.212,0,0,0,0,0,0,0,0,0,0,0,0,0,0.2034,0.202,0.204,0.2048,0.2049,0.207,0.207,0.207,0.2071,0.2071,0.2071,0.2071,0.2117,0.2119,0.2121,0.2133,0,0,0.2126,0.2127,0,0,0,0,0,0,0,0,0.2033,0.2034,0.2046,0.2048,0.2049,0.207,0.208,0.2093,0.2071,0.2059,0.2071,0.2071,0.2106,0.2109,0.2109,0.2135,0.2137,0.2127,0.2128,0.2129,0.2129,0,0,0,0,0,0,0,0.2032,0.2033,0.2048,0.2047,0.2049,0.2063,0.2064,0.2083,0.208,0.206,0.2061,0.207,0.2106,0.2107,0.211,0.2138,0.2127,0.2128,0.2129,0.213,0.2221,0.2222,0,0,0,0,0,0,0.2034,0.2032,0.2047,0.2049,0.2045,0.2064,0.2065,0.206,0.2079,0.2083,0.207,0.207,0.2104,0.2108,0.2112,0.2169,0.2129,0.213,0.2131,0.222,0.2222,0.2223,0,0,0,0,0,0,0.2033,0.2034,0.2046,0.2045,0.2048,0.2064,0.2059,0.2061,0.208,0.2087,0.2091,0.209,0.2104,0.2109,0.2137,0.2169,0.2131,0.2133,0.2218,0.222,0.2222,0.2257,0,0,0,0,0,0,0.2032,0.2033,0.2047,0.2045,0.2048,0.2076,0.206,0.2062,0.2087,0.2087,0.2106,0.2109,0.2104,0.2134,0.2139,0.2171,0.2134,0.2217,0.2219,0.2222,0.2254,0.226,0.2265,0,0,0,0,0,0.2031,0.2048,0.2047,0.2051,0.2061,0.2077,0.2081,0.2089,0.2088,0.2105,0.2108,0.2109,0.2153,0.2137,0.2142,0.2175,0.2216,0.2219,0.2221,0.2252,0.2259,0.2265,0,0,0,0,0,0,0.2059,0.205,0.2049,0.2066,0.208,0.2079,0.21,0.2103,0.2119,0.212,0.2121,0.2125,0.2164,0.2165,0.2147,0.2209,0.2187,0.2191,0.2209,0.2215,0.222,0.2256,0.2136,0,0,0,0,0,0.2068,0.2068,0.2073,0.2089,0.2096,0.2101,0.2115,0.2117,0.2125,0.2132,0.2141,0.2155,0.2177,0.2192,0.2207,0.224,0.2259,0.2268,0.2273,0.2277,0.231,0.2344,0.2355,0.2232,0.2232,0.2232,0,0,0.2095,0.2081,0.2091,0.2094,0.2101,0.2122,0.2109,0.213,0.2164,0.2136,0.2181,0.2176,0.2191,0.2224,0.2242,0.223,0.2321,0.2281,0.2284,0.2316,0.2348,0.236,0.2371,0.2234,0.2234,0.2234,0,0,0.2124,0.2123,0.2132,0.2146,0.2155,0.2151,0.2163,0.2171,0.2195,0.2229,0.2219,0.223,0.2266,0.2274,0.2287,0.2334,0.2347,0.2343,0.24,0.2431,0.2442,0.2451,0.2486,0.2498,0.2345,0.2345,0.2345,0,0.2164,0.2155,0.2145,0.2159,0.2178,0.2168,0.2195,0.2223,0.2242,0.2276,0.2254,0.2299,0.2295,0.2347,0.2359,0.2348,0.2373,0.237,0.2438,0.2448,0.2458,0.2491,0.2504,0.2347,0.2347,0.2347,0.2347,0,0.2203,0.2202,0.2212,0.2214,0.2237,0.2256,0.2284,0.2311,0.2323,0.2354,0.241,0.239,0.2419,0.2414,0.2405,0.2471,0.247,0.2439,0.2421,0.2472,0.2503,0.2517,0.235,0.235,0.2349,0.2348,0,0,0.2289,0.2243,0.2263,0.2253,0.2265,0.2287,0.234,0.2393,0.2448,0.2467,0.2532,0.255,0.2541,0.2554,0.2529,0.2552,0.2618,0.2534,0.2534,0.2568,0.2706,0.2626,0.2633,0.2601,0.2604,0.2606,0.2699,0,0.2328,0.2323,0.232,0.2352,0.2335,0.236,0.2413,0.247,0.2511,0.2574,0.2588,0.2647,0.2599,0.2609,0.2622,0.2628,0.2657,0.2597,0.2654,0.2656,0.2578,0.2646,0.2431,0.2491,0.2712,0.2714,0.2716,0,0.2376,0.2348,0.2357,0.2356,0.2373,0.2414,0.2487,0.2548,0.264,0.268,0.2729,0.2752,0.2805,0.2738,0.2794,0.2764,0.2754,0.2744,0.2746,0.2677,0.2602,0.2477,0.2506,0.2738,0.2736,0.2735,0.2733,0,0.2391,0.2392,0.2381,0.2391,0.2398,0.2445,0.249,0.2579,0.2647,0.2767,0.2809,0.2876,0.29,0.2919,0.2895,0.287,0.2938,0.2891,0.2813,0.2807,0.264,0.2615,0.2939,0.2939,0.2939,0.2938,0.2938,0,0.2409,0.2419,0.2384,0.24,0.2417,0.2458,0.255,0.2605,0.2707,0.2775,0.2868,0.2911,0.2949,0.2978,0.2955,0.2929,0.2989,0.2858,0.2836,0.2644,0.2619,0.2842,0.2829,0.2942,0.2941,0.294,0.294,0,0.2425,0.2393,0.2383,0.2405,0.2406,0.2444,0.2554,0.2615,0.2732,0.281,0.2857,0.2971,0.3026,0.3034,0.3061,0.2993,0.2985,0.295,0.2726,0.2676,0.2826,0.2814,0.2915,0.2913,0.2912,0.291,0.2909,0,0.242,0.2402,0.2398,0.2362,0.2373,0.243,0.2451,0.2591,0.2647,0.2823,0.2831,0.2959,0.297,0.3007,0.2957,0.2931,0.2962,0.2702,0.2608,0.2861,0.2829,0.282,0.2811,0.2404,0.2399,0.2394,0.2391,0,0.2427,0.2433,0.2441,0.2363,0.2357,0.2385,0.244,0.2463,0.2612,0.2667,0.2746,0.2797,0.2855,0.2748,0.2735,0.2683,0.2696,0.2616,0.2951,0.2434,0.2383,0.235,0.2357,0.2354,0.2357,0.236,0.2362,0.2364,0.2457,0.2444,0.2436,0.2369,0.2362,0.2348,0.2323,0.2373,0.2432,0.245,0.2561,0.2542,0.257,0.2459,0.2369,0.2324,0.2506,0.238,0.2391,0.2407,0.2322,0.227,0.2205,0.2207,0.221,0.2212,0.2214,0,0.2438,0.2444,0.2409,0.234,0.231,0.2337,0.2304,0.2238,0.2205,0.2245,0.2256,0.2066,0.2015,0.2056,0.1934,0.1922,0.1881,0.1835,0.1769,0.1809,0.1844,0.1728,0.1455,0.1452,0.1449,0.1447,0,0,0.2428,0.24,0.2376,0.2307,0.2262,0.2179,0.2123,0.2004,0.1973,0.1866,0.1823,0.1937,0.2013,0.1713,0.1671,0.1548,0.166,0.1482,0.21,0.2066,0.2097,0.2178,0.2047,0,0,0,0,0]},{"header":{"parameterUnit":"m.s-1","parameterCategory":2,"la1":30.2991,"la2":30.254,"lo1":-89.0895,"lo2":-89.0444,"dy":0.0017,"dx":0.0017,"nx":28,"ny":28,"refTime":"2025-04-21T21:00:00:Z","depth":"2","parameterNumber":3,"parameterNumberName":"V-component_of_CURRENTS"},"data":[0,0,0,0,0,0,0,0,0,0,0,0,0,0,0,0,0,0,0,0,0,0,0,0,0,0,0,0,0,0,0,0,0,0,0,0,0,0,0,0,0,0,0,0,0,0,0,0,0,0,0,0,0,0,0,0,0,0,0.0095,0.0096,0,0.0129,0.0129,0.013,0.0127,0.0127,0.0126,0.0126,0.0097,0.0096,0.0096,0,0,0,0,0,0,0,0,0,0,0,0,0,0.0023,0.0024,0.0095,0.0096,0.0096,0.0129,0.0129,0.013,0.0127,0.0127,0.0126,0.0126,0.0097,0.0096,0.0096,0,0,0,0,0,0,0,0,0,0,0,0,0,0.0054,0.0024,0.0095,0.01,0.0101,0.0129,0.0129,0.013,0.0127,0.0127,0.0126,0.0126,0.0097,0.0096,0.0096,0.0104,0,0,0.0094,0.0094,0,0,0,0,0,0,0,0,0.0052,0.0057,0.0099,0.01,0.0101,0.0124,0.0093,0.0118,0.0127,0.0116,0.0126,0.0125,0.0101,0.01,0.0107,0.0103,0.0101,0.0094,0.0094,0.0093,0.0093,0,0,0,0,0,0,0,0.005,0.0055,0.0108,0.0099,0.0101,0.0098,0.0102,0.0098,0.011,0.0117,0.0117,0.0123,0.0101,0.0108,0.0106,0.0101,0.0094,0.0093,0.0093,0.0093,0.0102,0.0103,0,0,0,0,0,0,0.0049,0.0053,0.0107,0.0109,0.0076,0.01,0.0104,0.0116,0.0111,0.0111,0.0123,0.0123,0.0109,0.0107,0.0105,0.0125,0.0093,0.0093,0.0092,0.0102,0.0102,0.0103,0,0,0,0,0,0,0.0048,0.0054,0.0105,0.0082,0.0088,0.0102,0.0116,0.0117,0.0121,0.0117,0.0115,0.0124,0.0109,0.0106,0.0112,0.0123,0.0092,0.0092,0.0101,0.0102,0.0103,0.0158,0,0,0,0,0,0,0.0046,0.0054,0.0058,0.0082,0.009,0.0123,0.0116,0.0118,0.0126,0.0125,0.0117,0.0114,0.0108,0.0113,0.0111,0.0122,0.0091,0.01,0.0101,0.0102,0.0155,0.016,0.0165,0,0,0,0,0,0.0043,0.0055,0.0059,0.0065,0.0098,0.0123,0.0127,0.0133,0.0126,0.0132,0.0133,0.0114,0.0118,0.0113,0.0111,0.0122,0.0099,0.0101,0.0102,0.0153,0.0159,0.0165,0,0,0,0,0,0,0.0025,0.0057,0.0061,0.0081,0.01,0.0123,0.0129,0.0133,0.0139,0.0135,0.0126,0.0125,0.0134,0.0119,0.0114,0.0127,0.0104,0.0105,0.0143,0.0149,0.0154,0.0147,0.0091,0,0,0,0,0,0.0025,0.0042,0.0069,0.0085,0.0094,0.011,0.0119,0.0126,0.0137,0.0139,0.0138,0.0135,0.014,0.0137,0.0137,0.0144,0.0116,0.0148,0.0153,0.0157,0.015,0.013,0.0132,0.0107,0.0107,0.0107,0,0,0.0021,0.0042,0.005,0.0082,0.0096,0.0121,0.0114,0.0131,0.0152,0.0134,0.0156,0.0153,0.0146,0.0161,0.0163,0.0149,0.0149,0.0159,0.0163,0.0153,0.0131,0.0134,0.0136,0.0108,0.0108,0.0108,0,0,0.0031,0.0042,0.0063,0.008,0.0105,0.0123,0.0127,0.0152,0.016,0.0183,0.0178,0.0182,0.0187,0.019,0.019,0.0219,0.0178,0.0216,0.0233,0.0214,0.0216,0.0217,0.0182,0.018,0.0215,0.0215,0.0215,0,0.0026,0.0061,0.0071,0.0096,0.0117,0.0125,0.0155,0.0168,0.0192,0.0207,0.0193,0.0213,0.0202,0.0225,0.0233,0.023,0.0204,0.0214,0.0221,0.0221,0.0221,0.0185,0.0181,0.0218,0.0218,0.0217,0.0217,0,0.0054,0.0081,0.0094,0.0135,0.0156,0.018,0.0205,0.0227,0.0236,0.0249,0.027,0.0261,0.027,0.0268,0.0257,0.0261,0.0238,0.0233,0.0206,0.0227,0.0187,0.0183,0.0222,0.0221,0.022,0.0219,0,0,0.0052,0.0106,0.0108,0.0143,0.0179,0.0207,0.0243,0.0288,0.0323,0.0319,0.0354,0.0347,0.0332,0.0329,0.0316,0.0291,0.0268,0.0259,0.0257,0.0224,0.021,0.0195,0.0187,0.0264,0.0263,0.0263,0.0181,0,0.0077,0.0135,0.0152,0.0214,0.0256,0.0276,0.0318,0.0352,0.0375,0.0408,0.0384,0.0407,0.0359,0.0368,0.0334,0.03,0.0258,0.0289,0.0194,0.019,0.0174,0.0183,0.0207,0.0136,0.0176,0.0176,0.0175,0,0.0103,0.0148,0.0208,0.0286,0.0303,0.0335,0.0414,0.0449,0.0485,0.0503,0.0502,0.0484,0.0459,0.0412,0.0328,0.035,0.0272,0.0227,0.0223,0.0183,0.0167,0.0122,0.0126,0.0167,0.0167,0.0168,0.0169,0,0.0115,0.0189,0.0244,0.0266,0.0347,0.038,0.0421,0.0476,0.0532,0.0559,0.06,0.0552,0.055,0.0449,0.0342,0.0336,0.0237,0.0223,0.0127,0.0124,0.0112,0.0109,0.0138,0.0138,0.0138,0.0138,0.0138,0,0.0143,0.0187,0.0258,0.0285,0.0376,0.0409,0.0491,0.0538,0.0603,0.0679,0.0642,0.0686,0.0558,0.049,0.0365,0.0235,0.0251,0.0123,0.0104,0.0132,0.0132,0.0133,0.0134,0.0135,0.0136,0.0136,0.0137,0,0.0146,0.0186,0.0264,0.0348,0.0384,0.0445,0.0549,0.0617,0.0672,0.077,0.0785,0.0786,0.0709,0.0562,0.041,0.0286,0.0154,0.0094,0.0125,0.0111,0.0041,0.0045,-0.0017,-0.0019,-0.002,-0.0021,-0.0021,0,0.0153,0.0192,0.0299,0.0367,0.0407,0.0498,0.0574,0.0648,0.0737,0.0841,0.0904,0.086,0.0846,0.0615,0.04,0.0176,0.0144,0.0035,0.0025,0.0038,0.0026,0.0032,0.0038,0.0024,0.0024,0.0024,0.0023,0,0.0181,0.0209,0.0277,0.0395,0.0487,0.0593,0.0704,0.0804,0.0905,0.0993,0.1093,0.1079,0.0876,0.0673,0.0366,0.0214,0.0076,0.0023,0.0037,0.0066,0.0072,0.0063,0.0067,0.0022,0.0022,0.0022,0.0022,0.0022,0.0201,0.0251,0.0328,0.0446,0.0548,0.0685,0.0804,0.0925,0.1069,0.1219,0.12,0.1182,0.0947,0.0569,0.0318,0.0058,0.007,-0.0035,-0.0032,-0.003,-0.0004,0.0001,-0.006,-0.006,-0.006,-0.0061,-0.0061,0,0.024,0.0284,0.0385,0.0536,0.0655,0.0692,0.0895,0.1016,0.1201,0.127,0.1322,0.1093,0.087,0.0601,0.0226,-0.001,-0.0026,-0.0092,-0.0053,-0.005,-0.0047,-0.002,-0.0082,-0.0082,-0.0083,-0.0084,0,0,0.0268,0.0349,0.0396,0.0591,0.0706,0.0871,0.1003,0.1157,0.125,0.1324,0.1307,0.125,0.094,0.066,0.0353,0.014,0.0093,0.0089,0.0131,0.0217,0.0223,0.0012,0.006,0,0,0,0,0]}],[{"header":{"parameterUnit":"m.s-1","parameterCategory":2,"la1":30.2991,"la2":30.254,"lo1":-89.0895,"lo2":-89.0444,"dy":0.0017,"dx":0.0017,"nx":28,"ny":28,"refTime":"2025-04-21T21:00:00:Z","depth":"4","parameterNumber":2,"parameterNumberName":"U-component_of_CURRENTS"},"data":[0,0,0,0,0,0,0,0,0,0,0,0,0,0,0,0,0,0,0,0,0,0,0,0,0,0,0,0,0,0,0,0,0,0,0,0,0,0,0,0,0,0,0,0,0,0,0,0,0,0,0,0,0,0,0,0,0,0,0.1029,0.103,0,0.1136,0.1137,0.1138,0.122,0.1221,0.1221,0.1222,0.1369,0.1372,0.1375,0,0,0,0,0,0,0,0,0,0,0,0,0,0.0956,0.0956,0.1028,0.103,0.1031,0.1136,0.1137,0.1139,0.122,0.1221,0.1222,0.1223,0.1368,0.1372,0.1376,0,0,0,0,0,0,0,0,0,0,0,0,0,0.1016,0.0956,0.1028,0.1085,0.1091,0.1136,0.1137,0.1139,0.1219,0.1221,0.1222,0.1223,0.1367,0.1371,0.1376,0.138,0,0,0.139,0.1393,0,0,0,0,0,0,0,0,0.1013,0.1019,0.1075,0.1081,0.1088,0.1167,0.1166,0.1222,0.1219,0.117,0.1222,0.1224,0.1305,0.1315,0.133,0.1387,0.1393,0.1391,0.1394,0.1396,0.1397,0,0,0,0,0,0,0,0.1008,0.1015,0.107,0.1077,0.1085,0.1127,0.1136,0.1177,0.1229,0.1174,0.1181,0.1194,0.1309,0.1325,0.1334,0.1396,0.1391,0.1395,0.1398,0.14,0.1579,0.1581,0,0,0,0,0,0,0.0992,0.1011,0.1067,0.1073,0.1054,0.1127,0.1137,0.1139,0.1228,0.1243,0.1192,0.1197,0.1317,0.1329,0.134,0.1443,0.1396,0.14,0.1403,0.1577,0.158,0.1582,0,0,0,0,0,0,0.099,0.0996,0.1062,0.1046,0.1058,0.1126,0.1128,0.1141,0.1187,0.1241,0.1257,0.1229,0.1318,0.1333,0.1401,0.1446,0.1402,0.1407,0.1575,0.1578,0.1581,0.1589,0,0,0,0,0,0,0.0987,0.0994,0.1001,0.1044,0.1058,0.1105,0.1128,0.1142,0.1192,0.1199,0.1277,0.1291,0.132,0.1394,0.1406,0.1451,0.141,0.1573,0.1576,0.158,0.1587,0.1592,0.1597,0,0,0,0,0,0.0984,0.0982,0.1001,0.1009,0.1061,0.1106,0.1118,0.117,0.1192,0.1215,0.1269,0.129,0.1426,0.1399,0.1412,0.146,0.1571,0.1575,0.158,0.1584,0.1591,0.1597,0,0,0,0,0,0,0.0962,0.0991,0.1013,0.1023,0.1071,0.1121,0.1145,0.1181,0.124,0.1253,0.1304,0.1322,0.1405,0.1427,0.1396,0.1525,0.1506,0.1514,0.1506,0.1512,0.1517,0.1498,0.1414,0,0,0,0,0,0.0956,0.0961,0.1007,0.1021,0.1041,0.1097,0.1126,0.1163,0.1215,0.1244,0.1298,0.1361,0.1428,0.1464,0.152,0.1578,0.1593,0.1623,0.1628,0.1632,0.1627,0.17,0.1711,0.1596,0.1596,0.1596,0,0,0.0952,0.0971,0.0976,0.1018,0.1055,0.1091,0.1118,0.1165,0.1207,0.1249,0.1324,0.1382,0.1449,0.1524,0.1564,0.1551,0.1669,0.1637,0.164,0.1633,0.1706,0.1717,0.1726,0.1599,0.1599,0.1598,0,0,0.0939,0.0963,0.0962,0.1003,0.106,0.1098,0.1116,0.118,0.1221,0.1291,0.1344,0.1423,0.1511,0.1572,0.1612,0.1678,0.1697,0.1708,0.1716,0.1787,0.1796,0.1805,0.1815,0.1825,0.1707,0.1707,0.1707,0,0.0944,0.0946,0.0975,0.0998,0.1039,0.1102,0.1134,0.1181,0.1265,0.1305,0.1318,0.1479,0.1534,0.1638,0.1665,0.169,0.1711,0.1683,0.1792,0.1801,0.1809,0.1818,0.1829,0.1708,0.1708,0.1707,0.1707,0,0.0927,0.0952,0.0961,0.1009,0.1054,0.1095,0.1163,0.122,0.1278,0.1329,0.1442,0.1518,0.1614,0.1654,0.1679,0.1781,0.1768,0.179,0.1768,0.1821,0.1827,0.1838,0.1709,0.1709,0.1708,0.1708,0,0,0.0901,0.094,0.0952,0.0983,0.1069,0.1106,0.1178,0.1262,0.1323,0.1403,0.1486,0.1601,0.1645,0.1694,0.1751,0.1808,0.1883,0.1821,0.1825,0.1816,0.2001,0.1865,0.1863,0.1929,0.1931,0.1933,0.1971,0,0.0897,0.092,0.0953,0.1017,0.1046,0.1133,0.1201,0.1288,0.1366,0.1458,0.1544,0.1648,0.1661,0.1727,0.1784,0.1881,0.1915,0.1867,0.1965,0.1966,0.1827,0.1873,0.1941,0.1979,0.1982,0.1983,0.1985,0,0.0875,0.0903,0.0941,0.103,0.1054,0.1114,0.1244,0.1313,0.1443,0.1506,0.1604,0.1674,0.179,0.179,0.1933,0.1905,0.1944,0.1991,0.1994,0.187,0.185,0.1925,0.2004,0.2002,0.2001,0.1999,0.1998,0,0.0832,0.0901,0.0931,0.0964,0.1072,0.1129,0.1206,0.1334,0.1406,0.1549,0.1619,0.1739,0.1834,0.1909,0.1995,0.1982,0.2126,0.2125,0.2021,0.201,0.2115,0.2106,0.22,0.22,0.22,0.22,0.2199,0,0.0804,0.0838,0.092,0.0946,0.1026,0.1114,0.1213,0.1309,0.1445,0.1533,0.1646,0.1729,0.1876,0.1968,0.2014,0.2041,0.2143,0.2017,0.2021,0.2115,0.2106,0.2121,0.2111,0.2201,0.2201,0.22,0.22,0,0.0738,0.0787,0.0837,0.0953,0.1002,0.1062,0.1213,0.1278,0.1423,0.1544,0.1598,0.1758,0.1874,0.1975,0.211,0.2064,0.2112,0.2089,0.2153,0.2161,0.1931,0.1922,0.1964,0.1959,0.1956,0.1953,0.195,0,0.0688,0.0706,0.0827,0.0871,0.0929,0.1031,0.1103,0.1257,0.1329,0.1542,0.1591,0.1751,0.1839,0.1906,0.2013,0.2066,0.2052,0.2034,0.1991,0.1912,0.1912,0.1909,0.1905,0.1944,0.1943,0.1943,0.1942,0,0.0612,0.0665,0.0712,0.0802,0.0883,0.0951,0.1068,0.1119,0.1298,0.1439,0.1557,0.1632,0.1746,0.183,0.1886,0.1922,0.2028,0.1996,0.2003,0.1962,0.1889,0.1892,0.1893,0.1929,0.1931,0.1932,0.1933,0,0.0558,0.0573,0.0646,0.0723,0.0809,0.0858,0.093,0.1034,0.1132,0.1382,0.141,0.1584,0.1727,0.1755,0.1809,0.1833,0.1806,0.1742,0.1762,0.1777,0.1701,0.158,0.1526,0,0,0,0,0,0.0505,0.051,0.0563,0.0638,0.0714,0.077,0.0902,0.0979,0.1162,0.1212,0.1317,0.1418,0.1516,0.1595,0.1585,0.171,0.1797,0.1688,0.1728,0.1859,0.1874,0.1803,0,0,0,0,0,0,0.0469,0.0495,0.0524,0.0547,0.0586,0.0657,0.0738,0.0862,0.0906,0.1102,0.1168,0.131,0.1426,0.1507,0.155,0.1574,0.1566,0.1795,0.1791,0.1851,0.1864,0.1876,0.1808,0,0,0,0,0]},{"header":{"parameterUnit":"m.s-1","parameterCategory":2,"la1":30.2991,"la2":30.254,"lo1":-89.0895,"lo2":-89.0444,"dy":0.0017,"dx":0.0017,"nx":28,"ny":28,"refTime":"2025-04-21T21:00:00:Z","depth":"4","parameterNumber":3,"parameterNumberName":"V-component_of_CURRENTS"},"data":[0,0,0,0,0,0,0,0,0,0,0,0,0,0,0,0,0,0,0,0,0,0,0,0,0,0,0,0,0,0,0,0,0,0,0,0,0,0,0,0,0,0,0,0,0,0,0,0,0,0,0,0,0,0,0,0,0,0,0.0174,0.0174,0,0.0185,0.0185,0.0186,0.0168,0.0168,0.0167,0.0167,0.0131,0.0131,0.013,0,0,0,0,0,0,0,0,0,0,0,0,0,0.0116,0.0117,0.0174,0.0174,0.0174,0.0185,0.0185,0.0186,0.0169,0.0168,0.0167,0.0166,0.0131,0.0131,0.013,0,0,0,0,0,0,0,0,0,0,0,0,0,0.0135,0.0117,0.0174,0.0167,0.0167,0.0185,0.0185,0.0186,0.0169,0.0168,0.0167,0.0166,0.0131,0.0131,0.013,0.0144,0,0,0.0128,0.0128,0,0,0,0,0,0,0,0,0.0134,0.0137,0.0168,0.0168,0.0167,0.0175,0.0152,0.0169,0.0169,0.0168,0.0167,0.0166,0.0142,0.014,0.0145,0.0142,0.0141,0.0128,0.0128,0.0128,0.0127,0,0,0,0,0,0,0,0.0133,0.0137,0.0178,0.0168,0.0168,0.0156,0.0158,0.0155,0.0159,0.0168,0.0167,0.0168,0.0141,0.0146,0.0144,0.014,0.0128,0.0128,0.0127,0.0127,0.0138,0.0138,0,0,0,0,0,0,0.0134,0.0136,0.0178,0.0179,0.0148,0.0158,0.016,0.0173,0.016,0.0157,0.0169,0.0168,0.0147,0.0145,0.0142,0.0159,0.0128,0.0127,0.0127,0.0137,0.0138,0.0138,0,0,0,0,0,0,0.0133,0.0138,0.0178,0.0157,0.0161,0.016,0.0175,0.0174,0.0174,0.0161,0.0158,0.017,0.0146,0.0143,0.0149,0.0157,0.0127,0.0126,0.0136,0.0137,0.0138,0.0192,0,0,0,0,0,0,0.0132,0.0138,0.0148,0.0157,0.0162,0.0192,0.0175,0.0175,0.0177,0.0175,0.0161,0.0157,0.0145,0.015,0.0149,0.0156,0.0126,0.0135,0.0137,0.0138,0.0189,0.0194,0.0199,0,0,0,0,0,0.013,0.015,0.0149,0.0154,0.0176,0.0193,0.0195,0.019,0.0178,0.0185,0.018,0.0157,0.0156,0.0151,0.0149,0.0156,0.0135,0.0136,0.0138,0.0187,0.0193,0.0199,0,0,0,0,0,0,0.0131,0.0151,0.0149,0.0175,0.0183,0.019,0.0199,0.0192,0.0195,0.019,0.0172,0.0169,0.0176,0.0161,0.0155,0.0162,0.0139,0.014,0.0177,0.0183,0.0187,0.0172,0.0125,0,0,0,0,0,0.0136,0.0156,0.0169,0.0188,0.0195,0.0195,0.02,0.0198,0.02,0.02,0.0193,0.0184,0.0182,0.0178,0.0175,0.0182,0.0146,0.0183,0.0188,0.0192,0.0178,0.0145,0.0145,0.0143,0.0143,0.0143,0,0,0.0141,0.0155,0.0166,0.0189,0.0195,0.0212,0.0197,0.0208,0.022,0.0196,0.0211,0.0204,0.0189,0.02,0.02,0.0186,0.0175,0.0194,0.0198,0.0181,0.0146,0.0146,0.0146,0.0144,0.0144,0.0144,0,0,0.0164,0.0175,0.0199,0.0208,0.0221,0.0224,0.0228,0.0238,0.024,0.0256,0.024,0.0236,0.024,0.0229,0.0223,0.0251,0.0204,0.025,0.026,0.023,0.0229,0.0228,0.0185,0.018,0.025,0.025,0.025,0,0.0164,0.0201,0.0207,0.0229,0.0237,0.0231,0.0252,0.0259,0.0268,0.0267,0.0266,0.0258,0.0251,0.0246,0.0259,0.026,0.023,0.0242,0.0235,0.0233,0.0231,0.0187,0.0181,0.0253,0.0252,0.0252,0.0252,0,0.0206,0.023,0.0245,0.0271,0.0279,0.0298,0.0304,0.0314,0.0314,0.031,0.031,0.0302,0.0289,0.0293,0.0287,0.0272,0.0251,0.0248,0.0219,0.0234,0.0187,0.018,0.0257,0.0256,0.0255,0.0254,0,0,0.022,0.0265,0.0271,0.0287,0.0302,0.0315,0.0334,0.0345,0.0349,0.035,0.0346,0.0347,0.0324,0.0315,0.0302,0.0278,0.0249,0.026,0.0257,0.0214,0.0168,0.0169,0.016,0.0247,0.0246,0.0245,0.0142,0,0.0249,0.03,0.0312,0.035,0.0373,0.0369,0.0386,0.0388,0.0386,0.0383,0.0356,0.0353,0.0338,0.0334,0.0306,0.0268,0.0231,0.0276,0.016,0.0156,0.0153,0.0152,0.0242,0.0136,0.0134,0.0132,0.0131,0,0.0285,0.0316,0.0362,0.039,0.0399,0.0418,0.043,0.0442,0.0427,0.0422,0.0395,0.0371,0.0336,0.0326,0.024,0.027,0.0216,0.018,0.0176,0.0147,0.0142,0.0115,0.0117,0.0118,0.0119,0.012,0.0121,0,0.0299,0.0346,0.0385,0.0396,0.0429,0.0446,0.0458,0.0454,0.047,0.044,0.0442,0.0381,0.0364,0.0287,0.0216,0.0225,0.0114,0.0117,0.0056,0.0055,0.006,0.0062,0.0039,0.0039,0.0039,0.0039,0.004,0,0.0326,0.0357,0.0399,0.0424,0.0464,0.0467,0.05,0.0501,0.0501,0.0516,0.0461,0.0455,0.0356,0.0287,0.0208,0.0107,0.0102,0.0044,0.0027,0.0087,0.0093,0.0055,0.0058,0.0035,0.0036,0.0037,0.0038,0,0.0342,0.0369,0.0418,0.0463,0.0479,0.0506,0.0549,0.0574,0.0561,0.0577,0.0573,0.0509,0.042,0.031,0.0182,0.0109,0.0007,-0.0031,0.0028,0.0018,-0.0035,-0.0028,-0.0117,-0.0118,-0.0119,-0.0119,-0.012,0,0.0358,0.0389,0.0451,0.0486,0.0514,0.0557,0.0594,0.0606,0.0634,0.0617,0.0629,0.0547,0.0492,0.0302,0.018,0.0002,-0.0015,-0.0088,-0.0056,-0.0044,-0.0052,-0.0043,-0.0035,-0.0121,-0.0121,-0.0121,-0.0121,0,0.0392,0.0416,0.0458,0.0529,0.0582,0.0635,0.0686,0.071,0.072,0.0712,0.0677,0.0574,0.0465,0.0312,0.0169,0.0047,-0.005,-0.0096,-0.0095,-0.0066,-0.005,-0.0055,-0.0046,-0.0124,-0.0124,-0.0123,-0.0123,0,0.0418,0.0452,0.0511,0.0567,0.0633,0.0693,0.0717,0.0748,0.0768,0.0747,0.0733,0.0607,0.053,0.0335,0.0209,0.0082,0.0053,0.0007,0.0002,0.0003,0.0075,0.0115,0.0067,0,0,0,0,0,0.0441,0.0484,0.0544,0.0611,0.0674,0.0712,0.0772,0.0789,0.0798,0.0786,0.076,0.0659,0.0462,0.0372,0.0247,0.0193,0.0028,0.004,-0.0028,-0.0138,-0.0135,-0.007,0,0,0,0,0,0,0.046,0.0522,0.0548,0.0632,0.0679,0.0757,0.0796,0.0807,0.0794,0.0779,0.0681,0.0619,0.0434,0.0538,0.0243,0.0203,0.0139,-0.0053,-0.0056,-0.014,-0.0137,-0.0135,-0.0067,0,0,0,0,0]}]]